Wind_Speed
14 14 14 14 12 11 10 9 9 8 8 7 7 6 6 6 6 6 5 5 5 5 5 5 5 6 7 8 8 7 7 7 7 7 6 5 5 5 6 7 7 6
13 13 14 13 12 11 10 10 9 8 8 7 7 6 6 6 7 7 6 6 6 6 6 6 6 6 6 7 8 8 8 7 7 7 7 7 7 6 7 8 8 8
12 12 12 12 11 11 10 9 8 8 8 7 7 7 7 7 7 7 7 7 7 7 8 7 8 8 7 7 8 9 9 8 8 8 8 8 8 8 8 8 8 9
11 11 11 11 10 9 8 8 8 8 8 8 8 7 7 7 7 7 7 7 7 8 9 9 9 9 9 9 10 10 10 10 9 9 9 9 10 10 10 9 9 9
12 11 10 10 10 9 8 8 8 8 8 8 7 7 7 7 7 7 8 8 8 9 10 10 10 11 11 11 12 12 12 12 11 10 10 10 10 11 11 11 10 10
11 9 9 9 9 9 9 10 9 8 8 8 8 7 7 7 7 7 8 9 10 10 11 12 12 12 13 13 14 14 14 14 13 13 12 11 10 11 12 12 12 11
9 9 9 10 10 10 11 11 10 9 9 9 8 8 8 8 9 9 9 10 11 12 13 14 14 15 15 15 16 16 16 16 16 15 14 13 12 11 11 12 13 13
11 11 11 11 11 11 11 11 10 10 10 9 9 10 10 10 11 12 11 11 12 13 14 15 16 17 17 17 17 17 17 17 17 17 17 16 14 13 12 11 12 13
12 12 12 12 11 11 11 11 10 10 10 10 10 11 11 11 12 12 11 11 11 12 14 16 17 18 19 19 19 18 18 18 18 18 19 18 17 16 14 13 11 12
12 11 11 11 11 11 10 10 10 10 10 10 11 11 11 11 11 10 10 11 12 13 14 16 17 19 19 20 20 19 19 18 18 18 19 20 19 18 17 15 14 13
12 12 11 10 10 10 10 10 10 10 10 10 11 10 10 10 10 9 10 12 13 15 15 15 16 17 18 19 19 19 19 18 18 17 19 20 20 20 19 18 16 16
12 11 10 10 9 9 10 10 10 9 10 10 10 10 9 9 9 10 11 11 12 13 14 14 14 15 15 16 17 18 18 18 17 17 17 18 20 21 20 19 18 18
11 10 10 10 10 10 10 10 10 9 9 9 9 9 9 9 10 10 10 10 10 10 11 11 11 11 12 13 14 15 16 16 17 17 17 17 18 20 20 20 19 19
11 11 11 11 11 11 11 10 10 10 10 10 9 9 9 10 10 9 9 9 9 8 8 7 7 8 8 9 10 12 13 15 16 17 17 17 16 17 19 20 20 19
12 12 13 14 13 13 13 12 11 11 11 11 10 10 10 10 9 8 8 7 7 7 6 6 6 6 7 7 8 9 10 11 13 15 17 17 16 16 17 18 19 20
12 13 14 15 15 15 15 14 13 12 12 12 12 11 11 9 8 8 7 6 6 6 6 6 6 6 6 6 7 7 8 8 9 11 12 13 13 12 13 14 15 17
12 14 14 14 15 16 16 16 14 13 12 12 12 12 11 10 9 8 7 6 5 6 6 6 6 7 7 7 7 7 7 7 7 8 9 10 10 10 10 10 11 12
12 13 14 14 15 16 17 17 16 14 13 12 12 12 11 10 9 8 7 6 5 6 6 7 7 7 8 8 8 8 7 7 7 8 8 9 10 10 10 10 11 11
12 12 13 14 15 16 18 19 18 15 14 13 14 13 12 10 9 8 8 7 6 6 7 7 8 9 9 9 10 10 10 9 8 8 8 9 10 10 11 12 12 13
13 13 13 14 15 16 17 18 18 16 15 15 15 14 12 11 11 10 9 7 7 7 8 8 9 10 10 10 11 12 12 11 10 9 9 10 11 11 12 13 13 14
14 15 16 16 17 18 17 17 18 18 17 16 15 14 14 13 13 11 10 8 8 8 9 9 10 11 12 12 13 14 15 14 12 11 11 12 13 14 15 16 17 17
16 16 18 18 18 19 17 17 17 18 17 17 16 16 15 15 14 12 11 11 11 10 9 9 11 12 13 13 14 16 18 19 18 17 16 15 16 17 18 19 20 21
17 17 18 19 19 19 18 17 17 18 18 18 17 17 16 15 15 14 14 13 12 11 11 11 12 14 14 15 16 18 19 20 21 22 22 21 20 21 21 21 21 23
19 18 17 18 19 19 19 18 18 18 18 18 18 18 17 17 17 17 16 15 13 12 12 13 14 15 15 16 17 19 20 20 22 23 24 25 26 26 26 25 24 24
20 19 17 16 17 18 19 19 19 19 19 19 19 19 18 18 18 17 16 15 14 13 13 13 14 16 17 17 18 20 21 22 23 24 25 27 29 31 31 31 29 28
20 19 17 16 17 18 19 19 20 20 20 20 20 20 20 19 18 17 16 15 15 15 15 16 16 18 19 20 21 23 23 24 25 25 26 29 31 32 32 33 32 31
Wind_Direction
211 210 213 215 215 214 213 214 218 222 224 230 238 247 253 258 266 275 281 281 285 294 303 316 329 339 342 343 349 351 345 335 325 321 323 326 332 339 340 337 337 342
210 212 215 217 218 217 218 221 225 229 229 230 236 242 246 252 260 269 276 277 276 281 287 294 305 315 325 330 337 344 347 343 331 319 312 311 312 316 323 328 330 332
209 212 216 219 221 220 221 224 228 231 231 230 232 234 238 245 254 263 270 274 275 278 282 285 291 298 305 312 319 328 335 340 337 329 319 310 305 305 309 315 320 323
204 208 215 221 225 225 222 222 224 227 229 230 231 229 230 236 246 259 268 274 275 276 280 283 286 290 294 297 300 307 316 325 329 331 330 321 309 303 301 303 309 313
200 204 210 220 228 232 230 227 223 224 228 230 229 227 228 234 243 257 269 276 278 279 282 285 286 286 288 289 290 292 298 306 313 319 325 325 318 310 303 300 300 303
195 200 205 214 224 230 235 236 230 225 227 230 233 237 241 247 253 259 269 277 282 284 283 284 285 285 285 286 286 285 287 292 297 303 309 315 319 317 312 306 301 299
193 196 200 204 209 216 224 232 233 230 233 237 243 251 257 263 268 269 272 276 279 281 281 281 281 281 281 281 281 281 282 284 287 290 295 302 308 313 315 315 310 303
196 195 195 197 197 202 211 220 228 233 239 247 253 261 267 272 276 277 277 276 276 277 277 278 277 277 277 276 276 277 278 280 282 284 287 292 297 301 307 313 314 308
200 197 196 197 197 200 207 214 223 233 243 253 261 269 276 278 279 280 280 281 280 277 275 273 272 271 272 271 272 273 275 278 280 283 285 286 289 292 296 303 307 306
202 202 202 204 206 211 217 224 233 245 254 262 270 276 279 280 278 279 282 284 284 281 277 273 271 270 270 271 271 273 274 277 279 282 284 285 286 287 290 294 298 300
204 206 210 214 220 227 234 242 251 260 266 269 271 273 273 273 274 276 280 282 282 283 283 281 278 275 274 273 273 274 274 276 277 279 282 285 286 286 288 290 292 296
207 211 217 224 232 240 246 253 260 265 267 266 266 266 265 265 268 275 283 285 283 283 284 286 286 283 280 278 276 276 275 275 275 276 278 282 285 287 289 290 291 294
212 218 225 233 240 247 252 255 259 262 262 260 259 259 258 259 266 278 287 289 287 286 285 285 287 286 283 280 277 275 274 274 275 274 274 275 280 286 290 292 293 294
224 230 237 242 244 249 252 252 254 254 253 253 252 251 250 255 267 281 289 289 289 292 291 286 281 282 284 282 280 277 275 274 275 276 276 276 277 281 285 290 292 294
232 238 245 249 249 249 249 248 249 248 247 248 246 244 246 254 268 281 285 287 290 292 291 288 286 288 291 292 291 288 285 283 282 281 283 284 284 284 285 288 291 294
242 248 251 253 251 249 247 245 246 247 247 246 245 244 247 255 268 278 280 283 286 289 289 289 293 295 297 296 295 297 300 299 297 295 295 299 302 303 300 297 297 300
257 261 262 258 253 250 247 245 246 248 249 248 248 248 250 256 265 273 277 278 279 284 288 290 296 302 303 301 298 299 303 305 308 309 311 316 320 324 325 322 319 318
264 264 265 262 256 250 247 245 245 248 250 249 249 250 251 255 263 267 272 275 275 280 286 294 303 308 310 310 308 306 305 307 312 316 322 326 329 333 340 343 342 339
267 265 265 265 261 254 248 246 246 248 250 249 247 249 252 256 261 263 265 269 274 280 287 296 302 306 308 308 308 307 307 312 321 327 330 329 328 334 339 342 341 337
266 269 269 267 263 257 251 248 246 246 247 248 247 250 255 258 259 259 262 267 273 280 287 292 296 299 301 300 299 300 302 309 318 325 326 323 322 327 330 329 326 321
265 270 274 271 262 256 252 246 243 243 244 246 249 252 254 255 257 260 264 267 267 270 276 281 284 289 293 294 295 296 298 305 311 313 313 313 315 317 317 314 311 309
267 271 278 276 262 252 248 242 239 240 241 244 247 250 253 255 257 260 263 263 263 267 274 275 274 276 279 281 283 287 294 302 306 307 306 306 307 308 306 305 304 302
266 272 279 277 261 247 242 239 236 235 239 242 244 248 251 253 253 253 254 257 262 269 276 276 275 276 275 273 272 274 280 287 293 297 300 301 302 300 298 296 295 295
263 271 278 273 257 245 238 235 233 232 234 239 243 245 246 246 244 246 249 254 260 266 271 273 276 279 278 275 273 272 274 277 281 287 293 296 298 296 294 293 291 291
259 269 276 268 254 245 238 234 231 230 231 235 240 242 242 240 239 241 245 250 253 257 261 265 269 275 277 278 276 274 274 276 278 281 285 288 290 290 291 292 291 291
254 263 271 265 251 244 240 235 233 233 233 234 237 239 240 239 239 239 239 241 246 252 258 263 266 269 272 275 275 275 275 276 277 280 281 282 283 285 287 289 289 287
Height
5932 5933 5935 5936 5938 5940 5941 5943 5944 5946 5947 5948 5948 5949 5949 5950 5950 5951 5951 5952 5952 5953 5953 5953 5953 5953 5953 5952 5952 5952 5952 5952 5952 5952 5952 5952 5952 5952 5952 5952 5951 5951
5931 5933 5934 5936 5937 5939 5940 5942 5943 5945 5946 5947 5948 5948 5949 5949 5950 5950 5951 5951 5952 5952 5952 5952 5952 5952 5952 5952 5952 5952 5952 5951 5951 5951 5951 5951 5951 5951 5951 5951 5951 5951
5930 5932 5933 5935 5936 5938 5940 5941 5943 5944 5945 5946 5947 5948 5948 5949 5949 5950 5950 5951 5951 5951 5951 5952 5952 5952 5951 5951 5951 5951 5951 5951 5951 5951 5951 5951 5951 5951 5950 5950 5950 5950
5929 5931 5932 5934 5935 5937 5939 5940 5942 5943 5944 5945 5946 5947 5947 5948 5948 5949 5949 5950 5950 5950 5951 5951 5951 5951 5951 5951 5950 5950 5950 5950 5951 5951 5951 5951 5950 5950 5950 5950 5950 5949
5927 5929 5931 5933 5934 5936 5937 5939 5940 5941 5943 5944 5945 5946 5947 5947 5948 5948 5948 5949 5949 5950 5950 5950 5950 5950 5950 5950 5950 5949 5949 5949 5950 5950 5950 5950 5950 5950 5949 5949 5949 5949
5925 5928 5930 5932 5933 5935 5936 5937 5939 5940 5941 5942 5943 5944 5945 5946 5947 5948 5948 5948 5948 5949 5949 5949 5949 5949 5949 5949 5949 5948 5948 5948 5948 5949 5949 5949 5949 5949 5949 5949 5949 5948
5924 5926 5928 5930 5932 5933 5934 5935 5937 5938 5939 5941 5942 5943 5944 5945 5946 5946 5947 5947 5947 5947 5947 5947 5947 5947 5947 5947 5947 5947 5947 5947 5947 5947 5947 5948 5948 5948 5948 5948 5948 5947
5922 5924 5926 5928 5930 5931 5933 5934 5935 5937 5938 5939 5940 5941 5942 5943 5944 5944 5945 5946 5946 5946 5946 5946 5945 5945 5945 5945 5945 5945 5945 5945 5945 5945 5946 5946 5946 5947 5947 5947 5947 5946
5920 5922 5924 5926 5928 5930 5931 5933 5934 5935 5937 5938 5939 5940 5941 5941 5942 5942 5943 5943 5944 5944 5944 5943 5943 5943 5943 5943 5943 5944 5944 5944 5944 5944 5944 5944 5945 5945 5945 5945 5945 5945
5918 5921 5923 5925 5927 5928 5930 5931 5933 5934 5935 5936 5937 5938 5939 5939 5940 5940 5941 5941 5941 5941 5941 5941 5940 5940 5940 5941 5941 5942 5942 5943 5943 5943 5943 5943 5943 5943 5944 5944 5944 5944
5917 5919 5921 5923 5925 5927 5928 5930 5931 5933 5934 5935 5935 5936 5937 5937 5938 5938 5939 5939 5939 5938 5938 5938 5938 5938 5938 5939 5939 5940 5940 5941 5942 5942 5942 5941 5941 5942 5942 5942 5943 5943
5916 5918 5920 5921 5923 5925 5926 5928 5929 5931 5932 5933 5934 5934 5935 5936 5936 5936 5937 5937 5937 5936 5936 5936 5936 5936 5937 5937 5937 5937 5938 5938 5939 5940 5941 5940 5940 5940 5940 5941 5941 5941
5914 5916 5918 5920 5921 5923 5925 5926 5928 5929 5930 5931 5932 5933 5933 5934 5934 5934 5935 5935 5935 5935 5935 5935 5934 5934 5935 5935 5935 5935 5935 5936 5936 5937 5938 5939 5939 5939 5939 5939 5940 5940
5912 5914 5916 5918 5920 5921 5923 5924 5926 5927 5928 5929 5930 5931 5932 5932 5932 5933 5933 5933 5933 5933 5933 5933 5933 5933 5933 5933 5933 5933 5933 5934 5934 5935 5936 5937 5938 5938 5938 5937 5938 5938
5911 5913 5914 5916 5918 5919 5921 5922 5924 5925 5926 5927 5928 5929 5929 5930 5931 5931 5931 5931 5931 5931 5931 5931 5931 5931 5931 5931 5931 5932 5932 5932 5933 5933 5933 5934 5935 5936 5936 5936 5936 5937
5909 5911 5913 5914 5916 5917 5918 5920 5921 5922 5924 5924 5925 5926 5927 5928 5928 5929 5929 5929 5929 5929 5929 5929 5930 5930 5930 5930 5930 5930 5931 5931 5931 5932 5932 5932 5933 5934 5934 5935 5935 5935
5908 5909 5911 5912 5913 5915 5916 5917 5919 5920 5921 5922 5923 5924 5925 5926 5926 5926 5927 5927 5927 5928 5928 5928 5928 5928 5928 5929 5929 5929 5930 5930 5930 5930 5931 5931 5931 5932 5932 5933 5933 5933
5906 5907 5908 5910 5911 5912 5913 5915 5916 5918 5919 5920 5921 5922 5922 5923 5924 5924 5925 5925 5925 5926 5926 5926 5926 5926 5927 5927 5927 5928 5928 5929 5929 5929 5930 5930 5930 5930 5931 5931 5932 5932
5904 5905 5906 5907 5908 5909 5910 5912 5914 5915 5916 5917 5918 5919 5920 5921 5922 5922 5923 5923 5923 5924 5924 5924 5925 5925 5925 5925 5925 5926 5926 5927 5928 5928 5929 5929 5929 5929 5930 5930 5930 5930
5901 5903 5904 5905 5906 5906 5908 5909 5911 5913 5914 5914 5915 5917 5918 5919 5919 5920 5920 5921 5921 5922 5922 5923 5923 5923 5924 5924 5924 5924 5924 5925 5926 5927 5927 5927 5927 5928 5928 5928 5928 5928
5899 5900 5901 5902 5902 5903 5905 5907 5908 5909 5911 5912 5913 5914 5915 5916 5916 5917 5918 5919 5919 5920 5921 5921 5922 5922 5922 5922 5922 5922 5922 5923 5924 5925 5925 5925 5926 5926 5926 5926 5926 5925
5897 5897 5898 5898 5899 5900 5902 5904 5905 5906 5908 5909 5910 5911 5912 5913 5914 5915 5915 5916 5917 5918 5919 5920 5920 5921 5921 5921 5921 5920 5919 5920 5920 5921 5922 5923 5924 5924 5924 5924 5923 5923
5894 5895 5895 5895 5895 5897 5899 5900 5902 5903 5904 5906 5907 5908 5910 5910 5911 5912 5913 5913 5914 5915 5916 5917 5918 5919 5919 5920 5920 5919 5919 5918 5918 5918 5919 5919 5920 5920 5920 5921 5920 5920
5891 5892 5893 5892 5892 5894 5895 5897 5898 5900 5901 5902 5904 5905 5907 5908 5909 5909 5910 5911 5912 5913 5914 5915 5916 5916 5917 5917 5918 5917 5917 5917 5917 5916 5916 5916 5916 5916 5916 5917 5917 5917
5888 5889 5890 5890 5890 5891 5892 5893 5895 5896 5897 5899 5900 5902 5903 5904 5905 5907 5908 5909 5910 5911 5912 5913 5914 5914 5914 5914 5914 5914 5914 5914 5914 5914 5914 5914 5913 5913 5912 5913 5913 5913
5885 5886 5887 5888 5888 5889 5890 5891 5892 5892 5894 5895 5896 5898 5899 5900 5902 5904 5905 5906 5907 5908 5909 5910 5910 5911 5911 5911 5910 5910 5910 5910 5910 5911 5911 5911 5910 5910 5910 5910 5909 5909